Location: Unspecified
(52.4292°N, 19.3359°E)
Time: 23:43:52
(UTC+02:00)

SR - Pass Details

Date: 28 May 2024
Orbit: 580 x 858 km, 66.7° (Epoch: 12 June)

Event Time Altitude Azimuth Distance (km) Brightness Sun altitude
Rises 17:19:25 0° 210° (SSW) 3,200 ? 29.2°
Reaches altitude 10° 17:21:53 10° 208° (SSW) 2,234 ? 28.8°
Maximum altitude 17:26:55 71° 126° (SE) 734 ? 28.0°
Drops below altitude 10° 17:31:35 10° 43° (NE) 2,068 ? 27.3°
Sets 17:33:48 0° 41° (NE) 2,944 ? 27.0°
